Current Version              Previous Version:    01  02  03  04  05  06  07  08  09  10  11  12  13  14  15  16  17  18  19  20  21  22  23  24  25  26  27  28  29  30  
   31  32  33  34  35  36  37  38  39  40  41  42  43  44  45  46  47  48  49  50  51  52  53  54  55  56  57  58  59  60  

[Printable]
995
ASUS44 KFWD 230410
RWRTX
NORTH TEXAS HOURLY WEATHER ROUNDUP
NATIONAL WEATHER SERVICE FORT WORTH TX
1100 PM CDT FRI AUG 22 2014

NOTE: "FAIR" INDICATES FEW OR NO CLOUDS BELOW 12,000 FEET WITH NO
SIGNIFICANT WEATHER AND/OR OBSTRUCTIONS TO VISIBILITY.

TXZ118-119-230500-
DALLAS/FORT WORTH METROPLEX

CITY           SKY/WX    TMP DP  RH WIND       PRES   REMARKS
DFW AIRPORT    CLEAR     89  67  47 S12       29.96R HX  92
DALLAS LOVE    CLEAR     89  68  49 S15G24    29.96R HX  93
FTW MEACHAM    CLEAR     90  67  46 S16G25    29.95R HX  93
DAL-EXECUTIVE  CLEAR     88  67  49 SE7       29.97R HX  91
FTW-ALLIANCE   CLEAR     88  66  48 S13       29.94S HX  90
FTW-NAS-JRB    CLEAR     91  63  39 SE14      29.99R HX  92
FTW-SPINKS     CLEAR     85  67  53 SE7       29.98S
ARLINGTON      CLEAR     88  66  48 SE10      29.96S HX  90
GRAND PRAIRIE  CLEAR     88  65  45 SE10      29.98S HX  90
ADDISON        CLEAR     89  65  45 S14G20    29.98S HX  91
MESQUITE       CLEAR     85  68  55 S8        29.97S
LANCASTER      CLEAR     85  67  55 SE6       29.98S
$$

TXZ091>094-102>105-117-120-121-131>134-230500-
NORTH CENTRAL TEXAS

CITY           SKY/WX    TMP DP  RH WIND       PRES   REMARKS
SHRMAN/DENISON CLEAR     85  65  49 SE16      29.97S
GAINESVILLE    CLEAR     79  64  58 SE7       29.98R
BOWIE          CLEAR     83  58  42 SE5       29.96R
BRIDGEPORT     CLEAR     88  55  31 S13       29.96S
DECATUR        CLEAR     86  56  36 SE9       29.97R
DENTON         CLEAR     88  64  44 SE14      29.95R
MCKINNEY       CLEAR     83  70  64 SE7       29.97R
GREENVILLE     CLEAR     82  68  61 S6        29.98S
ROCKWALL       CLEAR     84  70  61 S6        29.96S
TERRELL        CLEAR     85  68  56 S8        29.98S
WAXAHACHIE     CLEAR     84  64  50 SE7       29.99S
CLEBURNE       CLEAR     84  68  58 SE9       29.99S
GRANBURY       CLEAR     90  60  36 SE10      29.97S
$$

TXZ083>090-098>101-113>116-127>130-139>142-154-155-230500-
WESTERN NORTH TEXAS

CITY           SKY/WX    TMP DP  RH WIND       PRES   REMARKS
WICHITA FALLS  CLEAR     85  53  33 S12       29.91R
WF-KICKAPOO    CLEAR     83  50  31 S5        29.93S
VERNON         CLEAR     89  43  20 S12       29.93R
ABILENE        CLEAR     87  52  29 S14       29.99R
ABILENE-DYESS  CLEAR     82  54  38 S9        29.98R
BRECKENRIDGE   CLEAR     87  48  25 S12       29.96S
GRAHAM         CLEAR     87  52  29 SE7       29.94R
MINERAL WELLS  CLEAR     84  59  42 S8        29.95R
STEPHENVILLE   CLEAR     86  55  33 SE5       30.02R
COMANCHE       CLEAR     84  54  36 S7        30.00S
BROWNWOOD      CLOUDY    82  50  32 SE7       30.00R
COLEMAN        CLEAR     79  54  41 S7        30.01R
BRADY          CLEAR     81  54  39 SE6       30.02R
$$

TXZ143>147-156>162-174-175-230500-
CENTRAL TEXAS

CITY           SKY/WX    TMP DP  RH WIND       PRES   REMARKS
WACO           CLEAR     89  66  46 SE18      29.97S HX  91
WACO-TSTC      CLEAR     90  64  43 S10       29.97S HX  91
WACO-MCGREGOR  CLEAR     88  63  42 SE15      29.99R
HILLSBORO      CLEAR     87  63  44 SE12      29.98S
CORSICANA      CLEAR     87  69  54 SE10      30.00R HX  91
MEXIA          CLEAR     83  70  63 S7        29.99S
HEARNE           N/A     86  70  59 SE8       30.00S HX  90
CAMERON        CLEAR     88  69  53 S12G18    29.99R HX  93
TEMPLE         CLEAR     88  64  45 SE14      29.98S
KILLEEN        CLEAR     88  63  42 SE13      29.99S
KILLEEN-SKYLRK CLEAR     88  63  42 SE12      29.99S
FORT HOOD      CLEAR     89  63  41 SE10      29.99S HX  90
GATESVILLE     CLEAR     84  63  48 CALM      30.00S
HAMILTON       CLEAR     84  58  41 SE7       30.01S
LAMPASAS       CLEAR     86  62  44 S8        30.00R
$$

TXZ095>097-106>112-122>126-135>138-148>153-164>167-230500-
EAST TEXAS

CITY           SKY/WX    TMP DP  RH WIND       PRES   REMARKS
PARIS          CLEAR     81  66  61 S8        29.99S
SULPHUR SPRNGS CLEAR     85  70  61 S9        30.00S HX  90
CLARKSVILLE    MOCLDY    83  68  62 SE3       29.99R
MOUNT PLEASANT CLEAR     79  70  74 SE6       30.01S
GILMER         CLEAR     82  73  74 S7        30.01F
MINEOLA        CLEAR     82  73  74 SE3       30.00S
TYLER          CLEAR     83  71  67 S8        30.00S
LONGVIEW       CLEAR     81  70  69 S7        30.00S
MARSHALL       CLEAR     80  75  85 CALM      30.02F
ATHENS         CLEAR     81  70  69 SE5       29.99S
PALESTINE      CLEAR     83  71  68 SE3       30.02R
JACKSONVILLE   CLEAR     82  72  70 SE7       30.04S
HENDERSON      CLEAR     78  72  82 CALM      30.02S
NACOGDOCHES    CLEAR     79  72  78 SE5       30.02F
LUFKIN         CLEAR     83  73  72 S5        30.02S
$$

SUPPLEMENTAL OBSERVATIONS (CENTRAL)

CITY           SKY/WX    TMP DP  RH WIND       PRES   REMARKS
PAT MAYSE LAKE   N/A     84  68  58 SE9         N/A
GREENVILLE       N/A     82  68  61 S8          N/A
CEDAR HILL       N/A     88  66  48 SE10G18     N/A  HX  90
PALESTINE        N/A     82  70  65 S3          N/A
MCGREGOR         N/A     88  64  45 SE9         N/A
TEMPLE           N/A     86  66  51 SE7         N/A
$$

SUPPLEMENTAL OBSERVATIONS (WEST)

CITY           SKY/WX    TMP DP  RH WIND       PRES   REMARKS
MILLERS CREEK    N/A     84  43  23 S8          N/A
POSSUM KINGDOM   N/A     88  52  29 S9          N/A
GRANBURY         N/A     90  59  35 SE12        N/A
HAMBY            N/A     84  48  28 S10         N/A
IVIE RESERVOIR   N/A     81  54  39 SE6         N/A
COLORADO BEND    N/A     86  59  39 S10         N/A
$$

SUPPLEMENTAL OBSERVATIONS (EAST)

CITY           SKY/WX    TMP DP  RH WIND       PRES   REMARKS
TEXARKANA        N/A     75  72  88 CALM        N/A
LINDEN           N/A     81  70  69 S2          N/A
GILMER           N/A     82  72  69 S5          N/A
HENDERSON        N/A     81  72  74 S3          N/A
LUFKIN           N/A     81  77  89 MISG        N/A
N SABINE NF      N/A     75  70  83 MISG        N/A
$$

SUPPLEMENTAL OBSERVATIONS ARE A COLLECTION OF AUTOMATED INSTRUMENTS
THAT ARE MAINTAINED BY A VARIETY OF FEDERAL AND STATE AGENCIES.
CERTAIN ELEMENTS...SUCH AS HUMIDITY VALUES AND SUSTAINED WIND
SPEEDS...MAY BE APPROXIMATED.




908
ASUS44 KLUB 230410
RWRTX
WEST TEXAS WEATHER ROUNDUP
NATIONAL WEATHER SERVICE LUBBOCK TX
1100 PM CDT FRI AUG 22 2014

NOTE: "FAIR" INDICATES FEW OR NO CLOUDS BELOW 12,000 FEET WITH NO
SIGNIFICANT WEATHER AND/OR OBSTRUCTIONS TO VISIBILITY.

TXZ004-006>008-010-012-014-016-OKZ002-230500-
TEXAS PANHANDLE/OKLAHOMA PANHANDLE

CITY           SKY/WX    TMP DP  RH WIND       PRES   REMARKS
AMARILLO       MOCLDY    72  61  68 W13       30.04F
BORGER         MOCLDY    79  61  53 SW26G41   30.01R
CANADIAN       PTCLDY    86  53  31 S15       29.93R
DALHART        MOCLDY    77  57  50 S13       30.03R
DUMAS          LGT RAIN  66  63  89 S21G35    30.05R
GUYMON         CLOUDY    78  62  57 S12       29.94R
HEREFORD       RAIN      71  62  74 S17G23    30.08R
PAMPA          PTCLDY    77  54  44 S12       30.01R
PERRYTON       CLOUDY    82  57  42 S14       29.94S
$$

TXZ026-029-035-045-048-230500-
SOUTHERN PANHANDLE/SOUTH PLAINS/ROLLING PLAINS

CITY           SKY/WX    TMP DP  RH WIND       PRES   REMARKS
CHILDRESS      CLEAR     88  47  24 S16G23    29.95R
SEMINOLE       CLOUDY    79  57  46 CALM      30.06R
LUBBOCK        PTCLDY    84  51  31 S18       30.03R
PLAINVIEW      PTCLDY    78  50  38 S9        30.02R
SNYDER         CLEAR     83  51  33 SE12      30.02R
$$

TXZ052-054-060>062-072-078-127-140-154-169-230500-
PERMIAN BASIN/CONCHO VALLEY/BIG COUNTRY/EDWARDS PLATEAU

CITY           SKY/WX    TMP DP  RH WIND       PRES   REMARKS
ABILENE        CLEAR     87  52  29 S14       29.99R
BIG SPRING     CLEAR     86  48  27 SE17      30.03R
BRADY          CLEAR     81  54  39 SE6       30.02R
BROWNWOOD      CLOUDY    82  50  32 SE7       30.00R
JUNCTION       CLEAR     81  56  42 SE8       30.01R
MIDLAND        MOCLDY    86  55  34 S14       30.01R
ODESSA         CLOUDY    86  54  33 S12       30.03R
SAN ANGELO     CLEAR     82  54  37 SE9       29.99R
SONORA         CLEAR     82  52  34 SE7       30.06R
SWEETWATER     CLEAR     84  51  31 S14G21    30.05R
WINK           CLOUDY    77  69  76 NE5       30.01R
$$

TXZ055-058-074-075-080-082-230500-
FAR WEST/SOUTHWEST MOUNTAINS/TRANS PECOS

CITY           SKY/WX    TMP DP  RH WIND       PRES   REMARKS
ALPINE         CLOUDY    70  66  86 CALM      30.17S
DRYDEN           N/A     92  39  15 SE17G25   29.97R
EL PASO        LGT RAIN  75  61  61 SW8       30.09R
FORT STOCKTON  CLOUDY    84  55  36 S7        30.02R
GUADALUPE PASS CLOUDY    70  58  65 SW8       30.20R
MARFA          CLOUDY    68  61  77 SW29G45   30.19R THUNDER
PECOS          CLOUDY    73  66  77 E5        30.03R
PRESIDIO       CLOUDY    76  67  73 W8        30.01R
$$

TXZ014-016-019-021>030-083-230500
TEXAS TECH WEST TEXAS MESONET/TEXAS PANHANDLE/NORTHERN SOUTH PLAINS

CITY           SKY/WX    TMP DP  RH WIND       PRES   REMARKS
ABERNATHY 5ENE   N/A     79  49  35 S10       30.04R
AMARILLO 9NNE    N/A     70  60  71 W9        30.03F
AMARILLO 7SSE    N/A     71  60  66 W8        30.06S
AMHERST 1NE      N/A     71  62  73 SW13      30.07R
BOOTLEG 11WNW    N/A     69  61  77 SE8       30.10S
CANADIAN 6E      N/A     81  56  42 SE6       29.93R
CAPROCK CYN SP   N/A     79  46  31 S9        29.99R
CHILDRESS 2NNE   N/A     88  45  22 S16       29.94R
CLARENDON 2WSW   N/A     82  44  26 S13       29.99R
CLAUDE 12SW      N/A     77  59  53 W7        30.04R
DIMMITT 2NE      N/A     69  60  72 SW9       30.08R
FLOYDADA 2NNE    N/A     79  46  31 S12       30.02S
FRIONA 2NE       N/A     69  62  80 SE12      30.08F
GOODLETT 3W      N/A     89  46  22 S20       29.92R
HART 3N          N/A     72  58  62 W6        30.07S
HEREFORD 2NW     N/A     69  59  70 S13       30.07F
MCLEAN 1E        N/A     80  46  30 S13       29.98R
MEMPHIS 1NE      N/A     84  46  25 SE8       29.94R
MULESHOE 2SSW    N/A     70  63  78 S16       30.12R
OLTON 6S         N/A     74  58  56 SW7       30.06R
PALO DURO SP     N/A     75  58  56 SW9       30.05S
PAMPA 2E         N/A     80  53  39 S10       30.00R
PLAINVIEW 1S     N/A     78  51  40 S9        30.02S
SILVERTON 7ESE   N/A     82  48  30 S13       30.02R
TULIA 2ENE       N/A     76  61  60 W10       30.05R
TURKEY 2WSW      N/A     82  46  28 S10       29.97R
UMBARGER 3NNE    N/A     72  61  66 SW12      30.06R
$$

TXZ033>036-039>041-045>048-230500
TEXAS TECH WEST TEXAS MESONET/SOUTH PLAINS

CITY           SKY/WX    TMP DP  RH WIND       PRES   REMARKS
AIKEN 3WSW       N/A     77  53  42 S9        30.04R
ANDREWS 2NE      N/A     81  55  40 NW1       30.05R
ANTON 6SSW       N/A     79  59  50 SW12      30.06R
BROWNFIELD 2S    N/A     77  56  48 W2        30.06R
DENVR CTY 7WNW   N/A     75  56  51 SW17G26   30.06R
GAIL 2ESE        N/A     83  53  35 S9        30.00R
LAMESA 2SE       N/A     81  55  40 SE13      30.03R
LEVELLAND 4S     N/A     75  59  57 W10       30.07R
LUBBOCK 3WNW     N/A     84  50  31 S14       30.04R
MORTON 1ENE      N/A     68  63  83 W9        30.07F
ODONNELL 1N      N/A     80  53  39 SE10      30.03R
PLAINS 3N        N/A     74  59  60 W5        30.07R
RALLS 1SE        N/A     77  51  39 S8        30.04R
REESE CENTER     N/A     81  55  41 W15       30.05R
SEAGRAVES 1SW    N/A     78  58  51 N5        30.05R
SEMINOLE 2NNE    N/A     79  56  46 E1        30.05R
SLATON 2NE       N/A     79  49  34 S12       30.03R
SNYDER 3E        N/A     83  49  30 SE15      30.00R
SUNDOWN 8SW      N/A     73  59  62 NW5       30.06F
TAHOKA 3NNE      N/A     81  51  36 S12       30.03R
WOLFFORTH 6SSW   N/A     80  57  45 W10       30.06R
$$

TXZ031-032-036>038-042>044-230500-
TEXAS TECH WEST TEXAS MESONET/ROLLING PLAINS

CITY           SKY/WX    TMP DP  RH WIND       PRES   REMARKS
ASPERMONT 3NE    N/A     84  49  29 S9        29.96S
FLUVANNA 3WNW    N/A     83  51  32 S14       30.01R
GRAHAM 5SSW      N/A     84  51  32 S18       30.02R
GUTHRIE 10WSW    N/A     85  46  25 S13       29.96R
HASKELL 1NW      N/A     84  45  25 S8        29.95S
JAYTON 1SSE      N/A     85  46  25 S8        29.97S
KNOX CITY 3NW    N/A     82  45  27 S9        29.95R
LK A HENRY 1NW   N/A     83  49  30 S7        29.98R
NORTHFIELD 1S    N/A     86  47  25 S16       29.95R
ODELL 4ENE       N/A     84  46  26 S12       29.93R
PADUCAH 10SW     N/A     84  46  26 S12       29.96R
POST 1NE         N/A     84  49  30 S7        30.00R
RRING SPRGS 3N   N/A     83  48  29 S10       29.99R
SEYMOUR 3NW      N/A     88  45  22 S10       29.93R
SPUR 1W          N/A     85  44  23 S10       29.97S
WEINERT 2NNE     N/A     78  49  36 S7        29.96R
WHITE RVR 6NE    N/A     81  49  32 SE8       30.00R
$$

TXZ052-054-060>062-072-078-127-140-154-169-230500-
TEXAS TECH WEST TEXAS MESONET/PERMIAN BASIN/
CONCHO VALLEY/BIG COUNTRY/EDWARDS PLATEAU

CITY           SKY/WX    TMP DP  RH WIND       PRES   REMARKS
COYANOSA 2N      N/A     76  70  79 W7        30.01R
JUNCTION 1SSW    N/A     81  57  43 S5        30.02S
MERTZON 3NNE     N/A     81  53  38 SE6       30.02S
SAN ANGELO 7NW   N/A     81  53  38 SE7       30.00S
STRLNG CT 4WSW   N/A     82  52  35 SE6       30.02S
ST LAWRNCE 5SW   N/A     80  48  32 SE10      30.02S
SWEETWATR 11SW   N/A     83  55  37 S13       30.04R
WALL 1E          N/A     76  57  52 SE8       30.01R
$$

TXZ055-058-074-075-080-082-230500-
TEXAS TECH WEST TEXAS MESONET/FAR WEST/SOUTHWEST MOUNTAINS/TRANS PECOS

CITY           SKY/WX    TMP DP  RH WIND       PRES   REMARKS
PRSMN GAP BBNP   N/A     87  56  34 SE5       30.00R
GUADLPE MTN NP   N/A     72  55  55 W2        30.20R
$$